This is the latest recevied weather packets stored in our database for station/object W1HVD. If no packets are shown the sender has not sent any weather packets the latest 10 day(s).
| Time | Temp. | Humidity | Pressure | Rain* | Wind** | Luminosity | Snow |
|---|---|---|---|---|---|---|---|
| 1778148180 | 8.89° C | 99% | 1007.8 hPa | 1.78 mm | - | 2 W/m² | - |
| 1778147878 | 8.89° C | 99% | 1007.6 hPa | 1.78 mm | - | 3 W/m² | - |
| 1778147574 | 8.89° C | 99% | 1007.8 hPa | 0 mm | - | 3 W/m² | - |
| 1778147271 | 9.44° C | 99% | 1007.4 hPa | 0 mm | - | 2 W/m² | - |
| 1778146968 | 9.44° C | 99% | 1007.4 hPa | 0 mm | - | 1 W/m² | - |
| 1778146665 | 9.44° C | 99% | 1007.6 hPa | 1.27 mm | - | 1 W/m² | - |
| 1778146364 | 10° C | 99% | 1007.3 hPa | 1.27 mm | - | 1 W/m² | - |
| 1778146061 | 10° C | 99% | 1007.1 hPa | 1.78 mm | - | 0 W/m² | - |
| 1778145757 | 10.56° C | 99% | 1007.2 hPa | 1.78 mm | - | 0 W/m² | - |
| 1778145454 | 10.56° C | 99% | 1007 hPa | 0 mm | - | 0 W/m² | - |
| 1778145150 | 10.56° C | 99% | 1007.6 hPa | 1.27 mm | - | 0 W/m² | - |
| 1778144846 | 10.56° C | 99% | 1007.5 hPa | 1.27 mm | - | 0 W/m² | - |
| 1778144542 | 10.56° C | 99% | 1007.3 hPa | 1.27 mm | - | 0 W/m² | - |
| 1778144240 | 10.56° C | 99% | 1007 hPa | 0 mm | - | 0 W/m² | - |
| 1778143936 | 10.56° C | 99% | 1006.9 hPa | 0 mm | - | 0 W/m² | - |
| 1778143633 | 10.56° C | 99% | 1006.9 hPa | 1.78 mm | - | 0 W/m² | - |
| 1778143330 | 10.56° C | 99% | 1006.8 hPa | 3.05 mm | - | 0 W/m² | - |
| 1778143027 | 11.11° C | 99% | 1006.6 hPa | 3.05 mm | - | 0 W/m² | - |
| 1778142724 | 11.11° C | 99% | 1007 hPa | 1.78 mm | - | 0 W/m² | - |
| 1778142420 | 11.11° C | 99% | 1006.9 hPa | 3.05 mm | - | 0 W/m² | - |
| 1778142115 | 11.11° C | 99% | 1006.4 hPa | 3.05 mm | - | 0 W/m² | - |
| 1778141813 | 11.67° C | 99% | 1006.9 hPa | 7.87 mm | - | 0 W/m² | - |
| 1778141509 | 11.67° C | 99% | 1007 hPa | 10.67 mm | - | 0 W/m² | - |
| 1778141206 | 12.22° C | 99% | 1006.7 hPa | 11.94 mm | - | 0 W/m² | - |
| 1778140903 | 12.78° C | 99% | 1006.6 hPa | 13.72 mm | - | 0 W/m² | - |
* Rain latest hour (hover to see other rain measurements)
** Current wind speed in m/s (hover to see current wind gust speed)